Total_Precipitation_Accumulation
0.51 0.70 1.07 1.38 1.25 1.20 1.11 1.25 1.42 1.58 1.77 2.18 2.60 3.12 3.75 3.43 3.08 2.96 2.91 2.82 2.58 2.38 2.54 2.53 2.34 2.27 2.34 1.91 1.65 1.65 1.50 1.56 1.65 1.10 1.01 1.05 0.96 0.73 0.60 0.68 0.78 0.96 1.07
0.86 0.76 0.74 0.90 0.98 1.06 1.22 1.27 1.56 1.94 2.13 2.46 2.67 3.01 3.30 3.63 3.55 3.24 2.83 2.56 2.52 2.31 2.20 2.53 2.43 2.59 2.80 2.56 2.34 1.95 1.76 1.56 1.93 1.68 1.56 1.62 1.75 1.54 1.09 0.80 0.66 0.76 0.92
0.61 1.01 0.97 1.10 0.90 1.20 1.31 1.57 1.85 2.03 2.30 2.48 2.64 2.80 2.97 3.08 3.36 3.17 2.71 2.31 2.24 2.14 1.95 1.98 2.06 2.37 2.47 2.49 2.51 2.21 2.13 2.32 2.57 2.44 2.22 1.85 1.63 1.56 1.40 1.31 1.08 0.90 0.91
0.64 0.67 0.63 0.77 1.05 1.28 1.29 1.40 1.81 2.04 1.93 1.81 1.99 2.14 1.85 1.83 2.29 2.59 2.69 2.67 2.47 2.37 2.27 2.18 2.03 2.24 2.21 2.42 2.79 2.95 2.89 3.01 2.96 2.64 2.62 2.42 2.16 1.84 1.64 1.72 1.80 1.65 1.40
0.68 0.69 0.60 0.73 1.13 1.34 1.66 1.67 1.42 1.16 1.09 1.12 1.14 1.21 1.30 1.49 2.04 2.24 2.38 2.46 2.69 2.74 2.60 2.55 2.56 2.85 2.98 2.90 2.81 2.72 2.96 3.06 2.99 3.28 3.39 3.03 2.78 2.70 2.26 2.01 1.76 1.72 1.81
0.50 0.46 0.63 0.78 0.69 0.77 0.74 0.67 0.73 0.87 0.91 0.80 0.65 0.65 0.77 1.01 1.80 2.13 2.37 2.34 2.47 2.80 2.62 2.37 2.39 2.82 2.69 3.20 3.19 3.30 3.17 3.04 3.00 2.69 2.68 2.65 2.54 2.06 2.25 2.46 2.58 2.44 2.38
0.35 0.35 0.40 0.41 0.42 0.38 0.33 0.36 0.43 0.49 0.55 0.68 0.81 0.69 0.52 0.79 1.52 1.59 2.02 1.93 2.22 2.64 2.69 2.61 2.74 3.14 3.15 2.71 3.20 3.27 3.57 3.53 3.06 2.82 2.76 2.25 2.31 2.10 2.13 2.60 2.22 1.78 1.66
0.39 0.29 0.23 0.22 0.26 0.34 0.49 0.59 0.61 0.60 0.50 0.51 0.67 1.09 1.47 1.39 1.59 1.50 1.68 1.48 1.63 2.11 2.36 2.51 2.70 2.89 2.98 2.85 2.92 3.13 2.89 2.72 2.62 2.56 2.54 2.35 1.99 1.94 2.36 2.49 2.80 3.22 2.85
0.57 0.50 0.40 0.41 0.48 0.63 0.79 0.89 0.82 0.79 0.89 0.87 0.86 0.93 0.95 1.32 1.75 1.25 1.10 1.08 1.25 1.34 1.52 1.89 2.24 2.53 3.29 2.98 2.85 3.07 2.90 2.61 2.68 2.80 2.83 2.62 2.85 3.05 2.88 3.40 3.52 3.30 3.13
0.87 0.81 0.83 0.78 0.80 0.91 0.90 0.80 0.80 0.91 0.96 1.08 1.15 0.87 0.89 0.75 1.24 1.08 0.88 0.68 0.99 1.01 1.01 1.37 1.93 1.96 2.30 2.13 2.13 2.15 2.37 2.30 2.09 2.16 2.40 2.77 2.71 2.95 2.88 2.62 2.81 3.03 2.66
1.19 1.30 1.24 1.16 1.14 1.04 0.96 0.91 0.95 1.01 1.04 0.96 0.89 0.90 0.84 0.78 0.92 0.96 0.90 0.65 0.84 1.01 0.91 0.88 1.05 1.45 1.52 1.57 1.63 1.72 1.89 1.71 1.79 1.92 2.07 2.24 2.34 2.37 2.65 2.60 2.55 3.01 2.97
1.90 1.56 1.51 1.36 1.07 0.97 0.89 0.88 0.89 0.88 0.94 0.93 0.81 0.79 0.87 1.08 1.24 1.05 0.92 0.92 0.96 1.16 1.30 1.31 1.41 1.27 1.05 1.07 1.28 1.55 1.54 1.41 1.51 1.75 1.92 1.99 2.15 2.19 2.06 2.18 2.18 2.28 2.25
2.51 2.44 1.93 1.41 1.29 1.26 1.21 1.16 1.06 0.97 0.92 0.98 0.97 0.96 1.00 1.02 1.29 1.40 1.32 1.21 1.08 1.00 1.19 1.41 1.45 1.29 1.05 1.02 0.99 1.05 1.19 1.39 1.46 1.52 1.50 1.46 1.54 1.71 1.77 1.99 2.21 2.23 2.37
1.59 2.17 2.48 2.48 1.74 1.55 1.73 1.66 1.74 1.72 1.46 1.41 1.50 1.54 1.46 1.35 1.27 1.26 1.33 1.42 1.40 1.33 1.41 1.33 1.22 1.08 1.05 1.22 1.22 1.07 1.09 1.14 1.18 1.26 1.23 1.18 1.13 1.31 1.50 1.63 1.85 1.92 2.41
0.89 1.37 1.70 2.46 2.40 1.56 1.45 1.60 1.50 1.81 1.88 1.67 1.53 1.56 1.70 1.80 1.71 1.72 1.58 1.43 1.37 1.32 1.35 1.43 1.29 0.99 0.87 0.80 0.76 0.67 0.64 0.66 0.72 0.70 0.77 0.86 1.01 1.07 1.14 1.26 1.44 1.55 1.83
0.67 1.13 1.41 1.70 2.37 2.30 1.72 2.04 2.38 2.41 2.36 2.41 2.45 2.21 2.36 2.28 2.18 1.90 1.76 1.71 1.56 1.34 1.19 0.99 0.91 0.88 0.86 0.78 0.86 0.90 0.67 0.60 0.46 0.46 0.57 0.55 0.67 0.85 0.96 1.08 1.21 1.37 1.41
0.51 0.67 1.05 1.47 1.88 2.15 2.27 2.03 2.19 2.47 2.28 2.15 2.15 2.02 1.87 2.12 2.08 1.89 1.64 1.51 1.42 1.24 1.24 1.07 1.01 1.00 0.99 0.91 0.88 0.81 0.78 0.76 0.62 0.62 0.64 0.62 0.56 0.59 0.83 0.82 0.94 1.15 1.22
0.94 1.26 1.29 1.45 1.91 2.30 2.46 2.40 2.23 1.99 1.87 2.20 2.20 2.09 2.19 2.12 2.17 2.08 1.86 1.58 1.56 1.33 1.17 1.13 1.14 1.06 0.96 0.94 0.86 0.80 0.73 0.64 0.56 0.54 0.68 0.69 0.69 0.68 0.69 0.70 0.74 0.88 0.99
1.50 1.55 1.60 1.76 1.84 1.96 2.09 2.11 2.00 1.92 1.87 1.90 1.89 1.78 1.72 1.72 1.64 1.60 1.52 1.52 1.42 1.32 1.22 1.27 1.30 1.23 1.14 1.04 0.94 0.87 0.81 0.76 0.67 0.63 0.62 0.61 0.61 0.67 0.67 0.65 0.72 0.77 0.82
1.32 1.19 1.01 1.05 1.28 1.47 1.50 1.56 1.70 1.73 1.73 1.71 1.68 1.79 1.59 1.32 1.56 1.73 1.73 1.74 1.83 1.85 1.76 1.63 1.50 1.48 1.45 1.35 1.24 1.13 1.00 0.91 0.81 0.72 0.70 0.69 0.70 0.70 0.69 0.70 0.75 0.91 0.91
0.83 0.82 0.74 0.74 0.81 0.89 1.06 1.20 1.29 1.29 1.34 1.35 1.45 1.51 1.48 1.56 1.70 1.72 1.78 1.83 1.76 1.66 1.60 1.54 1.47 1.37 1.32 1.28 1.20 1.16 1.08 1.05 0.95 0.88 0.83 0.80 0.80 0.81 0.76 0.75 0.72 0.68 0.69
0.52 0.51 0.56 0.65 0.69 0.72 0.78 0.84 0.84 0.85 0.93 0.97 1.09 1.08 0.98 1.12 1.25 1.38 1.48 1.52 1.51 1.43 1.32 1.22 1.17 1.17 1.23 1.18 1.10 1.03 0.96 0.91 0.89 0.87 0.81 0.75 0.74 0.72 0.75 0.75 0.71 0.72 0.74
0.46 0.47 0.47 0.48 0.54 0.58 0.60 0.70 0.77 0.74 0.73 0.79 0.81 0.83 0.86 0.98 1.02 1.04 1.08 1.15 1.12 1.10 1.10 1.07 1.02 0.94 0.87 0.90 0.92 0.98 1.03 0.96 0.96 0.91 0.90 0.81 0.75 0.72 0.75 0.80 0.76 0.75 0.70
0.36 0.39 0.37 0.43 0.52 0.56 0.65 0.69 0.63 0.58 0.62 0.68 0.72 0.76 0.82 0.86 0.93 0.93 0.93 0.93 0.87 0.85 0.81 0.81 0.82 0.80 0.76 0.75 0.75 0.79 0.84 0.88 0.87 0.84 0.82 0.79 0.75 0.73 0.77 0.75 0.72 0.73 0.76
0.42 0.44 0.47 0.53 0.51 0.53 0.52 0.50 0.53 0.52 0.57 0.59 0.63 0.65 0.66 0.67 0.66 0.68 0.70 0.68 0.65 0.63 0.65 0.66 0.72 0.72 0.68 0.68 0.71 0.68 0.67 0.66 0.69 0.67 0.67 0.65 0.64 0.62 0.66 0.70 0.70 0.72 0.72
0.44 0.44 0.40 0.39 0.42 0.42 0.44 0.47 0.47 0.47 0.50 0.51 0.53 0.55 0.55 0.55 0.54 0.51 0.49 0.47 0.47 0.48 0.47 0.49 0.50 0.47 0.46 0.50 0.56 0.52 0.51 0.53 0.57 0.57 0.60 0.57 0.55 0.55 0.55 0.56 0.53 0.58 0.57